Weather History for Eureka, NV

Change the Weather History Date:

Thursday, April 11, 2013

  Actual Average Record
Temperature  
Mean Temperature 47 °F 42 °F  
Max Temperature 59 °F 57 °F 76 °F (1988)
Min Temperature 35 °F 27 °F 15 °F (1987)
Degree Days  
Heating Degree Days 18 23  
Month to date heating degree days 216 264  
Since 1 July heating degree days 6023 6420  
Cooling Degree Days 0 0  
Month to date cooling degree days 0 0  
Year to date cooling degree days 0 0  
Moisture  
Dew Point 28 °F    
Average Humidity 59    
Maximum Humidity 100    
Minimum Humidity 17    
Precipitation  
Precipitation 0.02 in 0.03 in 0.17 in (1965)
Month to date precipitation 0.27 0.33  
Year to date precipitation 2.34 2.86  
Sea Level Pressure  
Sea Level Pressure 29.90 in    
Wind  
Wind Speed 7 mph (North)    
Max Wind Speed 18 mph    
Max Gust Speed 23 mph    
T = Trace of Precipitation, MM = Missing Value Source: NWS Daily Summary

Daily Weather History Graph

Daily Weather History Graph

Search for Another Location

Airport:

Trip Planner

Search our weather history database for the weather conditions in past years. The results will help you decide how hot, cold, wet, or windy it might be!

Date:

Astronomy

Apr. 11, 2013 Rise Set
Actual Time 6:12 AM PDT 7:18 PM PDT
Civil Twilight 5:44 AM PDT 7:46 PM PDT
Nautical Twilight 5:11 AM PDT 8:19 PM PDT
Astronomical Twilight 4:37 AM PDT 8:53 PM PDT
Moon 6:46 AM PDT (4/11) 8:56 PM PDT (4/11)
Length of Visible Light 14h 01m
Length of Day
13h 06m
New Moon, 2% of the Moon is Illuminated
Apr 11
New Moon
Apr 18
First Quarter
Apr 25
Full
May 2
Last Quarter
May 9
New

Hourly Weather History & Observations

Time (PDT) Temp. Windchill Dew Point Humidity Pressure Visibility Wind Dir Wind Speed Gust Speed Precip Events Conditions
12:29 AM 48.0 °F - 30.9 °F 52% 30.05 in - NNW 13.8 mph - N/A   Unknown
12:53 AM 46.9 °F - 36.0 °F 66% 29.91 in - North 12.7 mph - N/A   Unknown
1:53 AM 46.0 °F 41.4 °F 37.0 °F 71% 29.89 in - North 9.2 mph - N/A   Unknown
2:53 AM 44.1 °F 40.1 °F 37.9 °F 79% 29.90 in - North 6.9 mph - N/A   Unknown
5:53 AM 41.0 °F 39.0 °F 39.0 °F 93% 29.87 in - North 3.5 mph - N/A   Unknown
6:53 AM 39.9 °F 34.5 °F 39.0 °F 97% 29.91 in - North 8.1 mph - 0.01 in   Unknown
8:53 AM 43.0 °F 36.8 °F 37.9 °F 82% 29.95 in - North 11.5 mph - N/A   Unknown
9:53 AM 46.9 °F - 34.0 °F 61% 29.94 in - NNE 13.8 mph - N/A   Unknown
10:00 AM - - - N/A% - - North - - N/A   Unknown
10:53 AM 48.9 °F - 33.1 °F 54% 29.94 in - Variable 4.6 mph - N/A   Unknown
11:53 AM 52.0 °F - 27.0 °F 38% 29.93 in - North 9.2 mph 17.3 mph N/A   Unknown
12:53 PM 53.1 °F - 28.0 °F 38% 29.90 in - Variable 5.8 mph - N/A   Unknown
1:53 PM 55.9 °F - 23.0 °F 28% 29.87 in - North 11.5 mph 19.6 mph N/A   Unknown
2:53 PM 55.9 °F - 19.0 °F 24% 29.85 in - NE 8.1 mph - N/A   Unknown
3:53 PM 57.0 °F - 14.0 °F 18% 29.82 in - North 8.1 mph - N/A   Unknown
4:53 PM 57.0 °F - 12.9 °F 18% 29.82 in - NNE 13.8 mph - N/A   Unknown
5:53 PM 55.0 °F - 18.0 °F 23% 29.85 in - NNE 16.1 mph - N/A   Unknown
6:53 PM 51.1 °F - 19.9 °F 29% 29.87 in - North 12.7 mph - N/A   Unknown
7:53 PM 46.0 °F 42.5 °F 23.0 °F 40% 29.90 in - NNE 6.9 mph - N/A   Unknown
8:53 PM 45.0 °F - 25.0 °F 46% 29.93 in - Calm Calm - N/A   Unknown
9:53 PM 43.0 °F 41.3 °F 26.1 °F 51% 29.92 in - ESE 3.5 mph - N/A   Unknown
10:53 PM 39.9 °F - 27.0 °F 60% 29.93 in - Calm Calm - N/A   Unknown
11:53 PM 37.0 °F 34.5 °F 27.0 °F 67% 29.92 in - SSW 3.5 mph - N/A   Unknown